Home > Weather > Ontario > Past weeks

Flag for USA Past Weather in Ontario, Oregon, USA — Yesterday and Last 2 Weeks

Now
47 °F

Clear.


Feels Like: 43 °F
Forecast: 48 / 82 °F
Wind: 8 mph from West

Location: Ontario Municipal Airport

Current Time: Jun 25, 2016 at 4:40:17 AM

Latest Report: Jun 25, 2016 at 3:53 AM


Visibility: 10 mi

Pressure: 30.23 "Hg (27.92 "Hg at 656m altitude)

Humidity: 69%

Dew Point: 37 °F

Location of OntarioLocation

Past Weather in Ontario — Graph

°F

Ontario Temperature Yesterday

Maximum temperature yesterday: 77 °F (at 5:53 PM)
Minimum temperature yesterday: 55 °F (at 11:53 PM)
Average temperature yesterday: 69 °F

High & Low Weather Summary for the Past Weeks

 TemperatureHumidityPressure
High93 °F (Jun 20, 4:53 PM)89% (Jun 15, 11:53 PM)30.38 "Hg (Jun 15, 11:53 PM)
Low43 °F (Jun 13, 5:53 AM)8% (Jun 12, 6:53 PM)29.70 "Hg (Jun 10, 2:53 AM)
Average66 °F39%30.00 "Hg
* Reported Jun 10 2:53 AM — Jun 25 2:53 AM, Ontario, Weather by CustomWeather, © 2016

Note: Actual official high and low records may vary slightly from our data, if they occured in-between our weather recording intervals... More about our weather records

Advertising

Ontario Weather History for the Previous 24 Hours

Scroll right to see more
 ConditionsComfort  
Time TempWeatherWind HumidityBarometerVisibility
2:53 AM
Sat, Jun 25
50 °FClear.5 mph61%30.23 "Hg10 mi
1:53 AM50 °FClear.No wind66%30.23 "Hg10 mi
12:53 AM54 °FClear.No wind53%30.22 "Hg10 mi
11:53 PM
Fri, Jun 24
55 °FClear.3 mph44%30.20 "Hg10 mi
10:53 PM63 °FSunny.5 mph31%30.18 "Hg10 mi
9:53 PM65 °FSunny.No wind33%30.15 "Hg10 mi
8:53 PM70 °FSunny.8 mph25%30.12 "Hg10 mi
7:53 PM73 °FSunny.13 mph21%30.10 "Hg10 mi
6:53 PM77 °FSunny.20 mph14%30.10 "Hg10 mi
5:53 PM77 °FPartly sunny.6 mph15%30.09 "Hg10 mi
4:53 PM76 °FPartly sunny.14 mph16%30.10 "Hg10 mi
3:53 PM72 °FSunny.12 mph19%30.12 "Hg10 mi
2:53 PM74 °FSunny.13 mph17%30.11 "Hg10 mi
1:53 PM73 °FSunny.17 mph19%30.11 "Hg10 mi
12:53 PM71 °FSunny.15 mph22%30.12 "Hg10 mi
11:53 AM71 °FSunny.20 mph23%30.11 "Hg10 mi
10:53 AM69 °FSunny.20 mph30%30.09 "Hg10 mi
9:53 AM66 °FPassing clouds.15 mph40%30.08 "Hg10 mi
8:53 AM66 °FScattered clouds.10 mph43%30.05 "Hg10 mi
7:53 AM64 °FClear.9 mph50%30.02 "Hg10 mi
6:53 AM59 °FClear.5 mph62%29.99 "Hg10 mi
5:53 AM62 °FClear.7 mph54%29.96 "Hg10 mi
4:53 AM64 °FPassing clouds.15 mph52%29.91 "Hg10 mi
Weather by CustomWeather, © 2016

See weather overviewHow to use our weather pages